Time,TemperatureF,DewpointF,PressureIn,WindDirection,WindDirectionDegrees,WindSpeedMPH,WindSpeedGustMPH,Humidity,HourlyPrecipIn,Conditions,Clouds,dailyrainin,SoftwareType,DateUTC
2013-06-27 00:02:00,79.5,26.1,29.95,ESE,112,4.6,4.6,14,0.00,CLR,,0.00,WeatherDisplay:10.37,2013-06-27 05:02:00,
2013-06-27 00:07:00,79.5,26.1,29.92,ESE,112,6.9,6.9,14,0.00,CLR,,0.00,WeatherDisplay:10.37,2013-06-27 05:07:00,
2013-06-27 00:12:00,79.3,26.0,29.92,ESE,112,4.6,4.7,14,0.00,CLR,,0.00,WeatherDisplay:10.37,2013-06-27 05:12:00,
2013-06-27 00:17:00,79.2,25.8,29.92,SE,135,6.9,6.9,14,0.00,CLR,,0.00,WeatherDisplay:10.37,2013-06-27 05:17:00,
2013-06-27 00:22:00,79.0,25.7,29.95,NNE,22,5.8,5.8,14,0.00,CLR,,0.00,WeatherDisplay:10.37,2013-06-27 05:22:00,
2013-06-27 00:27:00,79.0,28.9,29.95,East,90,6.9,6.9,16,0.00,CLR,,0.00,WeatherDisplay:10.37,2013-06-27 05:27:00,
2013-06-27 00:32:00,78.8,30.3,29.95,NE,45,8.1,8.1,17,0.00,CLR,,0.00,WeatherDisplay:10.37,2013-06-27 05:32:00,
2013-06-27 00:37:00,78.6,30.1,29.92,NNE,22,5.8,5.8,17,0.00,CLR,,0.00,WeatherDisplay:10.37,2013-06-27 05:37:00,
2013-06-27 00:42:00,78.4,30.0,29.92,ESE,112,3.5,3.5,17,0.00,CLR,,0.00,WeatherDisplay:10.37,2013-06-27 05:42:00,
2013-06-27 00:47:00,78.3,29.8,29.92,ESE,112,3.5,3.5,17,0.00,CLR,,0.00,WeatherDisplay:10.37,2013-06-27 05:47:00,
2013-06-27 00:52:00,78.3,29.8,29.95,ESE,112,6.2,6.2,17,0.00,CLR,,0.00,WeatherDisplay:10.37,2013-06-27 05:52:00,
2013-06-27 00:57:00,78.1,29.7,29.95,East,90,6.9,6.9,17,0.00,CLR,,0.00,WeatherDisplay:10.37,2013-06-27 05:57:00,
2013-06-27 01:02:00,77.9,29.5,29.95,ESE,112,5.8,5.8,17,0.00,CLR,,0.00,WeatherDisplay:10.37,2013-06-27 06:02:00,
2013-06-27 01:07:00,77.9,29.5,29.95,ESE,112,4.6,4.6,17,0.00,CLR,,0.00,WeatherDisplay:10.37,2013-06-27 06:07:00,
2013-06-27 01:12:00,77.7,29.4,29.95,ESE,112,4.5,4.5,17,0.00,CLR,,0.00,WeatherDisplay:10.37,2013-06-27 06:12:00,
2013-06-27 01:17:00,77.5,30.7,29.95,East,90,12.7,12.7,18,0.00,CLR,,0.00,WeatherDisplay:10.37,2013-06-27 06:17:00,
2013-06-27 01:22:00,77.5,30.7,29.98,East,90,4.6,4.6,18,0.00,CLR,,0.00,WeatherDisplay:10.37,2013-06-27 06:22:00,
2013-06-27 01:27:00,77.4,30.5,29.98,East,90,2.3,2.3,18,0.00,CLR,,0.00,WeatherDisplay:10.37,2013-06-27 06:27:00,
2013-06-27 01:32:00,77.2,30.4,29.98,ESE,112,8.1,8.1,18,0.00,CLR,,0.00,WeatherDisplay:10.37,2013-06-27 06:32:00,
2013-06-27 01:37:00,77.2,30.4,29.95,NNE,22,3.5,3.5,18,0.00,CLR,,0.00,WeatherDisplay:10.37,2013-06-27 06:37:00,
2013-06-27 01:42:00,77.0,30.2,29.95,ESE,112,5.8,5.8,18,0.00,CLR,,0.00,WeatherDisplay:10.37,2013-06-27 06:42:00,
2013-06-27 01:47:00,76.8,30.1,29.95,SE,135,6.9,6.9,18,0.00,CLR,,0.00,WeatherDisplay:10.37,2013-06-27 06:47:00,
2013-06-27 01:52:00,76.8,31.4,29.92,ESE,112,3.5,3.5,19,0.00,CLR,,0.00,WeatherDisplay:10.37,2013-06-27 06:52:00,
2013-06-27 01:57:00,76.6,31.3,29.92,ESE,112,5.8,5.8,19,0.00,CLR,,0.00,WeatherDisplay:10.37,2013-06-27 06:57:00,
2013-06-27 02:02:00,76.6,31.3,29.92,ESE,112,3.8,3.8,19,0.00,CLR,,0.00,WeatherDisplay:10.37,2013-06-27 07:02:00,
2013-06-27 02:07:00,76.5,31.1,29.95,NNE,22,3.5,3.5,19,0.00,CLR,,0.00,WeatherDisplay:10.37,2013-06-27 07:07:00,
2013-06-27 02:12:00,76.5,31.1,29.95,ESE,112,5.8,5.8,19,0.00,CLR,,0.00,WeatherDisplay:10.37,2013-06-27 07:12:00,
2013-06-27 02:17:00,76.5,31.1,29.95,ENE,68,4.6,4.6,19,0.00,CLR,,0.00,WeatherDisplay:10.37,2013-06-27 07:17:00,
2013-06-27 02:22:00,76.3,31.0,29.89,ESE,112,5.8,5.8,19,0.00,CLR,,0.00,WeatherDisplay:10.37,2013-06-27 07:22:00,
2013-06-27 02:27:00,76.3,31.0,29.89,NW,315,3.5,3.5,19,0.00,CLR,,0.00,WeatherDisplay:10.37,2013-06-27 07:27:00,
2013-06-27 02:32:00,76.3,31.0,29.89,ESE,112,4.6,4.6,19,0.00,CLR,,0.00,WeatherDisplay:10.37,2013-06-27 07:32:00,
2013-06-27 02:38:00,76.3,31.0,29.95,ESE,112,4.6,4.6,19,0.00,CLR,,0.00,WeatherDisplay:10.37,2013-06-27 07:38:00,
2013-06-27 02:43:00,76.1,30.8,29.95,ESE,112,6.0,6.0,19,0.00,CLR,,0.00,WeatherDisplay:10.37,2013-06-27 07:43:00,
2013-06-27 02:48:00,76.1,30.8,29.95,ESE,112,5.8,5.8,19,0.00,CLR,,0.00,WeatherDisplay:10.37,2013-06-27 07:48:00,
2013-06-27 02:53:00,76.1,30.8,29.95,East,90,5.8,5.8,19,0.00,CLR,,0.00,WeatherDisplay:10.37,2013-06-27 07:53:00,
2013-06-27 02:58:00,76.1,30.8,29.95,ESE,112,3.8,3.8,19,0.00,CLR,,0.00,WeatherDisplay:10.37,2013-06-27 07:58:00,
2013-06-27 03:03:00,76.1,30.8,29.95,ESE,112,3.5,3.5,19,0.00,CLR,,0.00,WeatherDisplay:10.37,2013-06-27 08:03:00,
2013-06-27 03:08:00,76.1,32.1,29.98,East,90,4.9,4.9,20,0.00,CLR,,0.00,WeatherDisplay:10.37,2013-06-27 08:08:00,
2013-06-27 03:13:00,75.9,31.9,29.98,ESE,112,2.6,3.3,20,0.00,CLR,,0.00,WeatherDisplay:10.37,2013-06-27 08:13:00,
2013-06-27 03:18:00,75.7,31.8,29.98,SE,135,4.6,4.6,20,0.00,CLR,,0.00,WeatherDisplay:10.37,2013-06-27 08:18:00,
2013-06-27 03:23:00,75.7,31.8,29.98,ESE,112,4.6,4.6,20,0.00,CLR,,0.00,WeatherDisplay:10.37,2013-06-27 08:23:00,
2013-06-27 03:28:00,75.9,31.9,29.98,ESE,112,4.6,4.6,20,0.00,CLR,,0.00,WeatherDisplay:10.37,2013-06-27 08:28:00,
2013-06-27 03:33:00,75.9,31.9,29.98,ESE,112,5.8,5.8,20,0.00,CLR,,0.00,WeatherDisplay:10.37,2013-06-27 08:33:00,
2013-06-27 03:38:00,76.1,32.1,29.95,SE,135,5.8,5.8,20,0.00,CLR,,0.00,WeatherDisplay:10.37,2013-06-27 08:38:00,
2013-06-27 03:43:00,76.1,30.8,29.95,ESE,112,4.6,4.6,19,0.00,CLR,,0.00,WeatherDisplay:10.37,2013-06-27 08:43:00,
2013-06-27 03:48:00,76.1,30.8,29.95,ESE,112,4.6,4.6,19,0.00,CLR,,0.00,WeatherDisplay:10.37,2013-06-27 08:48:00,
2013-06-27 03:53:00,76.1,30.8,29.98,ESE,112,2.4,2.4,19,0.00,CLR,,0.00,WeatherDisplay:10.37,2013-06-27 08:53:00,
2013-06-27 03:58:00,75.9,30.7,29.98,ESE,112,2.3,2.3,19,0.00,CLR,,0.00,WeatherDisplay:10.37,2013-06-27 08:58:00,
2013-06-27 04:03:00,75.9,30.7,29.98,East,90,6.9,6.9,19,0.00,CLR,,0.00,WeatherDisplay:10.37,2013-06-27 09:03:00,
2013-06-27 04:08:00,75.9,31.9,29.95,ESE,112,3.5,3.5,20,0.00,CLR,,0.00,WeatherDisplay:10.37,2013-06-27 09:08:00,
2013-06-27 04:13:00,75.9,31.9,29.95,SE,135,2.3,2.3,20,0.00,CLR,,0.00,WeatherDisplay:10.37,2013-06-27 09:13:00,
2013-06-27 04:18:00,75.9,31.9,29.95,South,180,4.6,4.6,20,0.00,CLR,,0.00,WeatherDisplay:10.37,2013-06-27 09:18:00,
2013-06-27 04:23:00,75.9,31.9,29.98,SE,135,4.6,4.6,20,0.00,CLR,,0.00,WeatherDisplay:10.37,2013-06-27 09:23:00,
2013-06-27 04:28:00,75.7,31.8,29.98,ESE,112,4.5,4.5,20,0.00,CLR,,0.00,WeatherDisplay:10.37,2013-06-27 09:28:00,
2013-06-27 04:34:00,75.7,65.7,29.98,SE,135,3.5,3.5,71,0.00,CLR,,0.00,WeatherDisplay:10.37,2013-06-27 09:34:00,
2013-06-27 04:39:00,75.7,31.8,29.98,ESE,112,3.5,3.5,20,0.00,CLR,,0.00,WeatherDisplay:10.37,2013-06-27 09:39:00,
2013-06-27 04:44:00,75.6,31.6,29.98,SE,135,3.1,3.1,20,0.00,CLR,,0.00,WeatherDisplay:10.37,2013-06-27 09:44:00,
2013-06-27 04:49:00,75.4,31.5,29.98,SE,135,2.6,2.6,20,0.00,CLR,,0.00,WeatherDisplay:10.37,2013-06-27 09:49:00,
2013-06-27 04:54:00,75.2,31.3,29.95,East,90,3.5,3.5,20,0.00,CLR,,0.00,WeatherDisplay:10.37,2013-06-27 09:54:00,
2013-06-27 04:59:00,75.0,31.2,29.95,East,90,3.5,3.5,20,0.00,CLR,,0.00,WeatherDisplay:10.37,2013-06-27 09:59:00,
2013-06-27 05:04:00,74.8,32.3,29.95,ESE,112,3.5,3.5,21,0.00,BKN,,0.00,WeatherDisplay:10.37,2013-06-27 10:04:00,
2013-06-27 05:09:00,74.8,32.3,29.98,ENE,68,1.2,1.2,21,0.00,BKN,,0.00,WeatherDisplay:10.37,2013-06-27 10:09:00,
2013-06-27 05:14:00,74.7,32.1,29.98,East,90,0.0,0.0,21,0.00,BKN,,0.00,WeatherDisplay:10.37,2013-06-27 10:14:00,
2013-06-27 05:19:00,74.3,33.0,29.98,ENE,68,1.6,0.0,22,0.00,BKN,,0.00,WeatherDisplay:10.37,2013-06-27 10:19:00,
2013-06-27 05:24:00,74.3,33.0,29.95,East,90,2.0,2.0,22,0.00,BKN,,0.00,WeatherDisplay:10.37,2013-06-27 10:24:00,
2013-06-27 05:29:00,74.1,32.8,29.95,ESE,112,1.2,1.2,22,0.00,BKN,,0.00,WeatherDisplay:10.37,2013-06-27 10:29:00,
2013-06-27 05:34:00,73.9,33.8,29.95,ESE,112,1.2,1.2,23,0.00,BKN,,0.00,WeatherDisplay:10.37,2013-06-27 10:34:00,
2013-06-27 05:39:00,73.8,34.7,30.01,ESE,112,0.0,0.0,24,0.00,BKN,,0.00,WeatherDisplay:10.37,2013-06-27 10:39:00,
2013-06-27 05:44:00,73.6,34.5,30.01,ESE,112,0.0,0.0,24,0.00,BKN,,0.00,WeatherDisplay:10.37,2013-06-27 10:44:00,
2013-06-27 05:49:00,73.4,35.4,30.01,East,90,2.3,0.0,25,0.00,BKN,,0.00,WeatherDisplay:10.37,2013-06-27 10:49:00,
2013-06-27 05:54:00,73.6,35.6,29.95,East,90,0.0,0.0,25,0.00,SCT,,0.00,WeatherDisplay:10.37,2013-06-27 10:54:00,
2013-06-27 05:59:00,73.6,35.6,29.95,ENE,68,1.2,0.0,25,0.00,SCT,,0.00,WeatherDisplay:10.37,2013-06-27 10:59:00,
2013-06-27 06:04:00,73.6,35.6,29.95,ESE,112,1.2,0.0,25,0.00,SCT,,0.00,WeatherDisplay:10.37,2013-06-27 11:04:00,
2013-06-27 06:09:00,73.6,35.6,29.98,ESE,112,2.3,2.3,25,0.00,SCT,,0.00,WeatherDisplay:10.37,2013-06-27 11:09:00,
2013-06-27 06:14:00,73.6,35.6,29.98,ESE,112,2.3,2.3,25,0.00,BKN,,0.00,WeatherDisplay:10.37,2013-06-27 11:14:00,
2013-06-27 06:19:00,73.6,35.6,29.98,ESE,112,1.2,1.4,25,0.00,BKN,,0.00,WeatherDisplay:10.37,2013-06-27 11:19:00,
2013-06-27 06:24:00,73.6,34.5,29.98,East,90,1.2,1.2,24,0.00,BKN,,0.00,WeatherDisplay:10.37,2013-06-27 11:24:00,
2013-06-27 06:29:00,73.6,34.5,29.98,SE,135,3.3,3.3,24,0.00,BKN,,0.00,WeatherDisplay:10.37,2013-06-27 11:29:00,
2013-06-27 06:34:00,73.6,34.5,29.98,ESE,112,2.3,2.3,24,0.00,BKN,,0.00,WeatherDisplay:10.37,2013-06-27 11:34:00,
2013-06-27 06:39:00,73.4,35.4,29.98,NNE,22,1.2,0.0,25,0.00,BKN,,0.00,WeatherDisplay:10.37,2013-06-27 11:39:00,
2013-06-27 06:44:00,73.4,35.4,29.98,NNE,22,1.2,1.2,25,0.00,BKN,,0.00,WeatherDisplay:10.37,2013-06-27 11:44:00,
2013-06-27 06:49:00,73.4,35.4,29.98,NNE,22,1.2,1.2,25,0.00,BKN,,0.00,WeatherDisplay:10.37,2013-06-27 11:49:00,
2013-06-27 06:54:00,73.4,35.4,29.98,ESE,112,1.2,0.0,25,0.00,BKN,,0.00,WeatherDisplay:10.37,2013-06-27 11:54:00,
2013-06-27 06:59:00,73.4,35.4,29.98,ENE,68,1.6,1.6,25,0.00,BKN,,0.00,WeatherDisplay:10.37,2013-06-27 11:59:00,
2013-06-27 07:04:00,73.4,34.4,29.98,East,90,1.6,1.6,24,0.00,BKN,,0.00,WeatherDisplay:10.37,2013-06-27 12:04:00,
2013-06-27 07:09:00,73.6,34.5,29.98,ENE,68,2.3,2.3,24,0.00,BKN,,0.00,WeatherDisplay:10.37,2013-06-27 12:09:00,
2013-06-27 07:15:00,74.1,32.8,29.98,ESE,112,1.2,0.0,22,0.00,BKN,,0.00,WeatherDisplay:10.37,2013-06-27 12:15:00,
2013-06-27 07:20:00,74.7,32.1,29.98,East,90,2.3,2.3,21,0.00,BKN,,0.00,WeatherDisplay:10.37,2013-06-27 12:20:00,
2013-06-27 07:25:00,76.3,29.6,30.01,NNE,22,2.3,2.3,18,0.00,BKN,,0.00,WeatherDisplay:10.37,2013-06-27 12:25:00,
2013-06-27 07:30:00,76.8,30.1,30.01,East,90,2.3,2.4,18,0.00,BKN,,0.00,WeatherDisplay:10.37,2013-06-27 12:30:00,
2013-06-27 07:35:00,76.3,31.0,30.01,NNE,22,2.3,2.3,19,0.00,BKN,,0.00,WeatherDisplay:10.37,2013-06-27 12:35:00,
2013-06-27 07:40:00,75.9,30.7,29.98,ENE,68,4.6,4.6,19,0.00,BKN,,0.00,WeatherDisplay:10.37,2013-06-27 12:40:00,
2013-06-27 07:45:00,76.6,29.9,29.98,NNE,22,3.5,3.5,18,0.00,BKN,,0.00,WeatherDisplay:10.37,2013-06-27 12:45:00,
2013-06-27 07:50:00,76.6,31.3,29.98,NE,45,3.6,3.6,19,0.00,BKN,,0.00,WeatherDisplay:10.37,2013-06-27 12:50:00,
2013-06-27 07:55:00,76.6,31.3,30.01,NE,45,2.3,2.3,19,0.00,BKN,,0.00,WeatherDisplay:10.37,2013-06-27 12:55:00,
2013-06-27 08:00:00,76.6,31.3,30.01,ENE,68,3.5,3.5,19,0.00,BKN,,0.00,WeatherDisplay:10.37,2013-06-27 13:00:00,
2013-06-27 08:05:00,76.6,31.3,30.01,ESE,112,2.3,2.4,19,0.00,BKN,,0.00,WeatherDisplay:10.37,2013-06-27 13:05:00,
2013-06-27 08:10:00,76.8,31.4,30.01,East,90,2.3,2.3,19,0.00,BKN,,0.00,WeatherDisplay:10.37,2013-06-27 13:10:00,
2013-06-27 08:15:00,76.8,30.1,30.01,SE,135,2.3,2.4,18,0.00,SCT,,0.00,WeatherDisplay:10.37,2013-06-27 13:15:00,
2013-06-27 08:20:00,77.0,30.2,30.01,East,90,8.1,8.1,18,0.00,SCT,,0.00,WeatherDisplay:10.37,2013-06-27 13:20:00,
2013-06-27 08:25:00,77.4,30.5,30.01,East,90,2.3,2.3,18,0.00,SCT,,0.00,WeatherDisplay:10.37,2013-06-27 13:25:00,
2013-06-27 08:30:00,77.7,30.8,30.01,East,90,2.3,2.3,18,0.00,SCT,,0.00,WeatherDisplay:10.37,2013-06-27 13:30:00,
2013-06-27 08:35:00,77.7,30.8,30.01,East,90,3.5,3.5,18,0.00,SCT,,0.00,WeatherDisplay:10.37,2013-06-27 13:35:00,
2013-06-27 08:40:00,77.9,31.0,30.01,ESE,112,4.6,4.6,18,0.00,SCT,,0.00,WeatherDisplay:10.37,2013-06-27 13:40:00,
2013-06-27 08:45:00,78.1,31.1,30.01,East,90,2.3,2.3,18,0.00,SCT,,0.00,WeatherDisplay:10.37,2013-06-27 13:45:00,
2013-06-27 08:50:00,78.3,29.8,30.01,ESE,112,4.6,4.6,17,0.00,SCT,,0.00,WeatherDisplay:10.37,2013-06-27 13:50:00,
2013-06-27 08:55:00,78.6,30.1,30.01,ESE,112,3.5,3.5,17,0.00,SCT,,0.00,WeatherDisplay:10.37,2013-06-27 13:55:00,
2013-06-27 09:00:00,79.0,30.4,30.01,East,90,2.2,0.0,17,0.00,CLR,,0.00,WeatherDisplay:10.37,2013-06-27 14:00:00,
2013-06-27 09:06:00,79.2,30.6,30.01,ESE,112,5.8,5.8,17,0.00,CLR,,0.00,WeatherDisplay:10.37,2013-06-27 14:06:00,
2013-06-27 09:11:00,79.3,30.7,30.04,SE,135,2.3,2.3,17,0.00,CLR,,0.00,WeatherDisplay:10.37,2013-06-27 14:11:00,
2013-06-27 09:16:00,79.5,29.4,30.04,SE,135,4.6,4.6,16,0.00,CLR,,0.00,WeatherDisplay:10.37,2013-06-27 14:16:00,
2013-06-27 09:21:00,79.7,29.5,30.04,ESE,112,3.5,3.5,16,0.00,CLR,,0.00,WeatherDisplay:10.37,2013-06-27 14:21:00,
2013-06-27 09:26:00,80.2,29.9,30.04,ESE,112,5.4,5.4,16,0.00,CLR,,0.00,WeatherDisplay:10.37,2013-06-27 14:26:00,
2013-06-27 09:31:00,80.4,26.8,30.04,ESE,112,5.8,5.8,14,0.00,CLR,,0.00,WeatherDisplay:10.37,2013-06-27 14:31:00,
2013-06-27 09:36:00,80.6,27.0,30.04,ESE,112,2.3,2.3,14,0.00,CLR,,0.00,WeatherDisplay:10.37,2013-06-27 14:36:00,
2013-06-27 09:41:00,81.3,25.7,30.01,NE,45,6.9,6.9,13,0.00,CLR,,0.00,WeatherDisplay:10.37,2013-06-27 14:41:00,
2013-06-27 09:46:00,81.5,25.9,30.01,ESE,112,5.8,5.8,13,0.00,CLR,,0.00,WeatherDisplay:10.37,2013-06-27 14:46:00,
2013-06-27 09:51:00,82.0,22.3,30.01,NE,45,5.8,5.8,11,0.00,CLR,,0.00,WeatherDisplay:10.37,2013-06-27 14:51:00,
2013-06-27 09:56:00,82.6,20.5,30.01,ESE,112,5.8,5.8,10,0.00,CLR,,0.00,WeatherDisplay:10.37,2013-06-27 14:56:00,
2013-06-27 10:01:00,83.3,21.0,30.01,ESE,112,4.6,4.6,10,0.00,FEW,,0.00,WeatherDisplay:10.37,2013-06-27 15:01:00,
2013-06-27 10:06:00,83.8,21.4,30.01,East,90,2.3,2.3,10,0.00,FEW,,0.00,WeatherDisplay:10.37,2013-06-27 15:06:00,
2013-06-27 10:11:00,84.0,21.6,30.01,East,90,3.5,3.5,10,0.00,FEW,,0.00,WeatherDisplay:10.37,2013-06-27 15:11:00,
2013-06-27 10:16:00,84.7,22.1,30.01,SE,135,2.3,2.3,10,0.00,FEW,,0.00,WeatherDisplay:10.37,2013-06-27 15:16:00,
2013-06-27 10:21:00,84.9,22.2,30.01,ESE,112,2.3,2.3,10,0.00,FEW,,0.00,WeatherDisplay:10.37,2013-06-27 15:21:00,
2013-06-27 10:26:00,84.9,22.2,30.01,ESE,112,3.5,3.5,10,0.00,FEW,,0.00,WeatherDisplay:10.37,2013-06-27 15:26:00,
2013-06-27 10:31:00,85.3,22.5,30.01,ESE,112,3.8,3.8,10,0.00,FEW,,0.00,WeatherDisplay:10.37,2013-06-27 15:31:00,
2013-06-27 10:36:00,84.9,22.2,30.01,SE,135,5.8,5.8,10,0.00,FEW,,0.00,WeatherDisplay:10.37,2013-06-27 15:36:00,
2013-06-27 10:41:00,85.3,22.5,30.01,ESE,112,4.6,4.6,10,0.00,FEW,,0.00,WeatherDisplay:10.37,2013-06-27 15:41:00,
2013-06-27 10:46:00,85.3,22.5,30.01,SSE,158,3.5,3.5,10,0.00,FEW,,0.00,WeatherDisplay:10.37,2013-06-27 15:46:00,
2013-06-27 10:51:00,85.6,22.8,30.01,East,90,3.5,3.5,10,0.00,FEW,,0.00,WeatherDisplay:10.37,2013-06-27 15:51:00,
2013-06-27 10:56:00,86.0,23.1,30.01,NE,45,6.9,6.9,10,0.00,FEW,,0.00,WeatherDisplay:10.37,2013-06-27 15:56:00,
2013-06-27 11:01:00,86.2,70.2,30.01,ESE,112,2.3,2.3,59,0.00,CLR,,0.00,WeatherDisplay:10.37,2013-06-27 16:01:00,
2013-06-27 11:06:00,86.4,70.3,30.01,South,180,1.2,1.4,59,0.00,CLR,,0.00,WeatherDisplay:10.37,2013-06-27 16:06:00,
2013-06-27 11:11:00,87.3,71.2,30.01,North,0,6.9,6.9,59,0.00,CLR,,0.00,WeatherDisplay:10.37,2013-06-27 16:11:00,
2013-06-27 11:16:00,87.8,71.7,30.01,East,90,3.5,3.5,59,0.00,CLR,,0.00,WeatherDisplay:10.37,2013-06-27 16:16:00,
2013-06-27 11:21:00,88.2,72.0,30.01,ESE,112,3.5,3.5,59,0.00,CLR,,0.00,WeatherDisplay:10.37,2013-06-27 16:21:00,
2013-06-27 11:26:00,88.3,72.2,30.01,NE,45,3.5,3.5,59,0.00,CLR,,0.00,WeatherDisplay:10.37,2013-06-27 16:26:00,
2013-06-27 11:32:00,88.5,72.4,30.01,East,90,2.3,3.1,59,0.00,CLR,,0.00,WeatherDisplay:10.37,2013-06-27 16:32:00,
2013-06-27 11:37:00,88.9,72.7,30.01,ESE,112,4.6,4.6,59,0.00,CLR,,0.00,WeatherDisplay:10.37,2013-06-27 16:37:00,
2013-06-27 11:42:00,89.1,72.9,30.01,NE,45,2.3,2.3,59,0.00,CLR,,0.00,WeatherDisplay:10.37,2013-06-27 16:42:00,
2013-06-27 11:47:00,89.8,73.5,30.01,West,270,4.6,4.6,59,0.00,CLR,,0.00,WeatherDisplay:10.37,2013-06-27 16:47:00,
2013-06-27 11:52:00,90.1,73.9,30.01,ESE,112,4.6,4.6,59,0.00,CLR,,0.00,WeatherDisplay:10.37,2013-06-27 16:52:00,
2013-06-27 11:57:00,90.1,73.9,30.01,ESE,112,5.8,5.8,59,0.00,CLR,,0.00,WeatherDisplay:10.37,2013-06-27 16:57:00,
2013-06-27 12:02:00,91.4,67.7,30.01,ESE,112,3.1,3.1,46,0.00,CLR,,0.00,WeatherDisplay:10.37,2013-06-27 17:02:00,
2013-06-27 12:07:00,91.4,67.7,29.98,ESE,112,8.1,8.1,46,0.00,CLR,,0.00,WeatherDisplay:10.37,2013-06-27 17:07:00,
2013-06-27 12:12:00,92.1,68.4,29.98,ESE,112,5.8,5.8,46,0.00,CLR,,0.00,WeatherDisplay:10.37,2013-06-27 17:12:00,
2013-06-27 12:17:00,92.1,68.4,29.98,ESE,112,6.9,6.9,46,0.00,CLR,,0.00,WeatherDisplay:10.37,2013-06-27 17:17:00,
2013-06-27 12:22:00,92.5,68.7,30.01,NE,45,3.5,3.5,46,0.00,CLR,,0.00,WeatherDisplay:10.37,2013-06-27 17:22:00,
2013-06-27 12:27:00,92.7,68.9,30.01,SE,135,6.9,6.9,46,0.00,CLR,,0.00,WeatherDisplay:10.37,2013-06-27 17:27:00,
2013-06-27 12:32:00,92.8,69.0,30.01,ENE,68,6.9,6.9,46,0.00,CLR,,0.00,WeatherDisplay:10.37,2013-06-27 17:32:00,
2013-06-27 12:38:00,93.4,69.5,29.98,ESE,112,5.8,5.8,46,0.00,CLR,,0.00,WeatherDisplay:10.37,2013-06-27 17:38:00,
2013-06-27 12:43:00,93.7,69.8,29.98,SE,135,4.6,4.6,46,0.00,CLR,,0.00,WeatherDisplay:10.37,2013-06-27 17:43:00,
2013-06-27 12:48:00,93.6,69.7,29.98,ESE,112,3.5,3.5,46,0.00,CLR,,0.00,WeatherDisplay:10.37,2013-06-27 17:48:00,
2013-06-27 12:53:00,93.6,69.7,29.98,ESE,112,6.9,6.9,46,0.00,CLR,,0.00,WeatherDisplay:10.37,2013-06-27 17:53:00,
2013-06-27 12:58:00,93.9,68.0,29.98,ENE,68,5.8,5.8,43,0.00,CLR,,0.00,WeatherDisplay:10.37,2013-06-27 17:58:00,
2013-06-27 13:03:00,93.9,61.3,29.98,NE,45,4.6,4.6,34,0.00,CLR,,0.00,WeatherDisplay:10.37,2013-06-27 18:03:00,
2013-06-27 13:08:00,93.9,64.5,29.98,ESE,112,6.4,6.4,38,0.00,CLR,,0.00,WeatherDisplay:10.37,2013-06-27 18:08:00,
2013-06-27 13:13:00,94.3,64.8,29.98,SE,135,3.5,3.5,38,0.00,CLR,,0.00,WeatherDisplay:10.37,2013-06-27 18:13:00,
2013-06-27 13:18:00,94.3,64.8,29.98,SE,135,2.3,2.3,38,0.00,CLR,,0.00,WeatherDisplay:10.37,2013-06-27 18:18:00,
2013-06-27 13:23:00,94.5,64.9,29.98,East,90,5.8,5.8,38,0.00,CLR,,0.00,WeatherDisplay:10.37,2013-06-27 18:23:00,
2013-06-27 13:28:00,94.8,65.3,29.98,NNW,338,5.8,5.8,38,0.00,CLR,,0.00,WeatherDisplay:10.37,2013-06-27 18:28:00,
2013-06-27 13:33:00,94.6,65.1,29.98,SSE,158,5.8,5.8,38,0.00,CLR,,0.00,WeatherDisplay:10.37,2013-06-27 18:33:00,
2013-06-27 13:38:00,94.6,65.1,29.95,East,90,3.5,3.5,38,0.00,CLR,,0.00,WeatherDisplay:10.37,2013-06-27 18:38:00,
2013-06-27 13:43:00,95.0,65.4,29.95,NNE,22,5.8,5.8,38,0.00,CLR,,0.00,WeatherDisplay:10.37,2013-06-27 18:43:00,
2013-06-27 13:48:00,94.8,65.3,29.95,NE,45,5.8,5.8,38,0.00,CLR,,0.00,WeatherDisplay:10.37,2013-06-27 18:48:00,
2013-06-27 13:53:00,94.8,65.3,29.98,SSE,158,4.6,4.6,38,0.00,CLR,,0.00,WeatherDisplay:10.37,2013-06-27 18:53:00,
2013-06-27 13:58:00,94.8,65.3,29.98,NNE,22,2.3,2.3,38,0.00,CLR,,0.00,WeatherDisplay:10.37,2013-06-27 18:58:00,
2013-06-27 14:03:00,95.2,59.8,29.98,SSE,158,3.5,3.5,31,0.00,CLR,,0.00,WeatherDisplay:10.37,2013-06-27 19:03:00,
2013-06-27 14:08:00,95.5,60.1,29.98,East,90,4.9,4.9,31,0.00,CLR,,0.00,WeatherDisplay:10.37,2013-06-27 19:08:00,
2013-06-27 14:13:00,95.5,60.1,29.98,ENE,68,3.5,3.5,31,0.00,CLR,,0.00,WeatherDisplay:10.37,2013-06-27 19:13:00,
2013-06-27 14:18:00,96.1,60.6,29.98,NNE,22,6.4,6.4,31,0.00,CLR,,0.00,WeatherDisplay:10.37,2013-06-27 19:18:00,
2013-06-27 14:23:00,96.3,60.7,29.98,NE,45,5.8,5.8,31,0.00,CLR,,0.00,WeatherDisplay:10.37,2013-06-27 19:23:00,
2013-06-27 14:28:00,96.4,60.9,29.98,WNW,292,3.5,3.5,31,0.00,CLR,,0.00,WeatherDisplay:10.37,2013-06-27 19:28:00,
2013-06-27 14:33:00,96.8,61.2,29.98,North,0,6.9,6.9,31,0.00,CLR,,0.00,WeatherDisplay:10.37,2013-06-27 19:33:00,
2013-06-27 14:38:00,97.2,61.5,29.95,SE,135,2.3,2.3,31,0.00,CLR,,0.00,WeatherDisplay:10.37,2013-06-27 19:38:00,
2013-06-27 14:43:00,96.8,61.2,29.95,SSE,158,3.5,3.5,31,0.00,CLR,,0.00,WeatherDisplay:10.37,2013-06-27 19:43:00,
2013-06-27 14:49:00,97.0,61.3,29.95,SSW,202,2.3,3.1,31,0.00,CLR,,0.00,WeatherDisplay:10.37,2013-06-27 19:49:00,
2013-06-27 14:54:00,97.7,62.0,29.92,East,90,5.8,5.8,31,0.00,CLR,,0.00,WeatherDisplay:10.37,2013-06-27 19:54:00,
2013-06-27 14:58:00,98.4,62.6,29.92,NNE,22,5.8,5.8,31,0.00,CLR,,0.00,WeatherDisplay:10.37,2013-06-27 19:58:00,
2013-06-27 14:59:00,98.4,62.6,29.92,NNE,22,5.8,5.8,31,0.00,CLR,,0.00,WeatherDisplay:10.37,2013-06-27 19:59:00,
2013-06-27 15:04:00,98.6,55.6,29.92,NE,45,5.8,5.8,24,0.00,CLR,,0.00,WeatherDisplay:10.37,2013-06-27 20:04:00,
2013-06-27 15:09:00,98.6,55.6,29.92,North,0,6.9,6.9,24,0.00,CLR,,0.00,WeatherDisplay:10.37,2013-06-27 20:09:00,
2013-06-27 15:14:00,98.6,55.6,29.92,WNW,292,4.6,4.6,24,0.00,CLR,,0.00,WeatherDisplay:10.37,2013-06-27 20:14:00,
2013-06-27 15:19:00,99.0,55.9,29.92,North,0,3.5,3.5,24,0.00,CLR,,0.00,WeatherDisplay:10.37,2013-06-27 20:19:00,
2013-06-27 15:24:00,98.6,55.6,29.89,NNW,338,5.8,5.8,24,0.00,CLR,,0.00,WeatherDisplay:10.37,2013-06-27 20:24:00,
2013-06-27 15:30:00,99.0,55.9,29.89,NE,45,3.5,3.5,24,0.00,CLR,,0.00,WeatherDisplay:10.37,2013-06-27 20:30:00,
2013-06-27 15:36:00,99.7,56.5,29.89,NE,45,4.6,4.6,24,0.00,CLR,,0.00,WeatherDisplay:10.37,2013-06-27 20:36:00,
2013-06-27 15:41:00,100.0,56.8,29.92,NNE,22,5.8,5.8,24,0.00,CLR,,0.00,WeatherDisplay:10.37,2013-06-27 20:41:00,
2013-06-27 15:46:00,100.8,57.4,29.92,ENE,68,4.6,4.6,24,0.00,CLR,,0.00,WeatherDisplay:10.37,2013-06-27 20:46:00,
2013-06-27 15:51:00,100.4,57.1,29.92,NNE,22,5.8,5.8,24,0.00,CLR,,0.00,WeatherDisplay:10.37,2013-06-27 20:51:00,
2013-06-27 15:56:00,101.1,57.7,29.92,ESE,112,4.6,4.6,24,0.00,CLR,,0.00,WeatherDisplay:10.37,2013-06-27 20:56:00,